Погода в Савинках

Украина / Черниговская область     51°45′40″N   32°28′24″E
темп.,
°C
ветер,
м/с
пор.,
м/с
влажн.,
%
обл.,
%
осадки,
мм/ч
давл.,
гПа
погр.,
м
6 марта, сб
сб623:00−5зсз2389100 0.0 101854
02:00−6ссз3790100 0.0 1020180
05:00−9ссз349352 0.0 102082
08:00−8сз378926 0.0 1022217
11:00−4сз367460 0.0 1022514
14:00−2зсз357470 0.0 1021971
17:00−3сз238899 0.3 102295
20:00−8сз239052 0.3 102231
7 марта, вс
вс723:00−8зюз34910 0.0 102275
02:00−8юз410860 0.0 1020208
05:00−6юз6158362 0.0 1017406
08:00−3юз9168381 0.0 1013806
11:000зюз101686100 0.0 10091250
14:00+1зюз101789100 0.2 10071355
17:00+1з91684100 0.1 10061025
20:00−1з6119495 0.5 1008672
8 марта, пн
пн823:00−2зюз5119590 0.1 1008425
02:00−2з5118993 0.1 1007584
05:00−3зсз41087100 0.1 1007710
08:00−7ссз387477 0.1 1010430
11:00−4сз47670 0.0 1011816
14:00−3сз46660 0.0 10121005
17:00−5сз23750 0.0 101283
20:00−7зсз12760 0.0 101421
9 марта, вт
вт923:00−8з127918 0.0 101521
02:00−8зсз128340 0.0 101521
05:00−8ссз239093 0.0 101685
08:00−8с488997 0.1 1017490
11:00−6ссз577994 0.0 1019884
14:00−5ссз567797 0.1 10211083
17:00−7ссз478096 0.1 1022511
20:00−10с348848 0.1 1024115
10 марта, ср
ср1023:00−11с12890 0.0 102621
02:00−11зюз11875 0.0 102621
05:00−11юз349227 0.0 102584
08:00−9зюз478354 0.0 1025271
11:00−4з587489 0.0 1024529
14:00−3зюз577194 0.0 1024718
17:00−4зюз368087 0.0 1023160
20:00−7юз348563 0.0 102383